Date,TemperatureHighF,TemperatureAvgF,TemperatureLowF,DewpointHighF,DewpointAvgF,DewpointLowF,HumidityHigh,HumidityAvg,HumidityLow,PressureMaxIn,PressureMinIn,WindSpeedMaxMPH,WindSpeedAvgMPH,GustSpeedMaxMPH,PrecipitationSumIn
2013-1-1,43.4,39.6,35.1,41.8,37.4,30.1,97,92,77,27.44,27.31,15,1,21,0.61
2013-1-2,43.1,38.1,35.9,42.2,35.0,33.0,97,88,82,27.50,27.33,13,2,17,0.01
2013-1-3,39.4,36.1,34.6,33.8,32.0,28.8,92,85,67,27.56,27.48,9,2,0,0.00
2013-1-4,39.4,30.3,18.5,27.9,23.4,16.8,95,77,54,27.70,27.62,12,2,18,0.00
2013-1-5,45.5,32.0,19.2,34.4,24.5,17.5,95,76,43,27.71,27.54,8,1,0,0.04
2013-1-6,42.3,38.0,34.4,37.0,34.4,28.0,96,87,68,27.61,27.46,12,2,14,0.05
2013-1-7,48.4,34.9,23.8,30.7,27.3,22.1,94,75,47,27.73,27.60,10,2,0,0.00
2013-1-8,56.3,35.8,22.0,31.2,26.5,20.3,96,74,27,27.72,27.61,5,1,0,0.00
2013-1-9,48.1,41.3,31.3,45.9,38.0,28.3,96,88,71,27.80,27.62,8,0,0,0.04
2013-1-10,63.3,52.5,44.6,52.6,48.1,43.4,97,86,67,27.80,27.59,5,1,0,0.00
2013-1-11,63.9,57.1,50.0,58.6,52.4,45.9,97,85,72,27.60,27.46,12,1,15,0.07
2013-1-12,71.9,60.0,50.8,63.0,56.9,49.9,98,90,69,27.54,27.43,6,0,0,0.03
2013-1-13,71.5,57.9,45.9,58.1,52.9,45.1,98,85,59,27.48,27.37,10,1,0,0.55
2013-1-14,59.0,48.7,39.4,57.9,47.1,37.8,97,94,90,27.65,27.44,18,2,21,1.92
2013-1-15,48.4,42.9,39.4,47.4,41.9,38.1,98,96,93,27.54,27.31,10,1,0,2.81
2013-1-16,52.4,47.7,44.6,50.8,46.5,42.9,98,95,92,27.44,27.26,14,2,21,0.88
2013-1-17,44.8,37.8,32.0,43.7,35.6,29.5,97,92,83,27.64,27.30,13,2,17,0.97
2013-1-18,40.6,29.7,23.5,33.5,27.4,22.5,97,92,63,27.83,27.63,6,0,0,0.10
2013-1-19,27.0,25.0,22.7,26.2,24.2,21.6,97,97,96,27.71,27.68,1,0,0,0.00
2013-1-20,51.3,38.3,23.4,37.0,31.1,22.2,96,78,50,27.50,27.43,15,3,20,0.00
2013-1-21,28.4,25.8,23.6,27.3,24.7,22.4,96,96,95,27.45,27.40,1,0,0,0.00
2013-1-22,29.1,25.1,19.5,3.8,-0.3,-3.9,48,33,26,27.61,27.52,18,7,21,0.00
2013-1-23,25.7,25.4,25.1,2.0,-0.3,-2.7,36,32,28,27.60,27.56,11,3,0,0.00
2013-1-24,34.4,29.0,22.3,19.9,7.9,-0.5,59,41,27,27.72,27.50,18,4,21,0.00
2013-1-25,31.9,27.4,21.6,30.9,21.7,5.1,96,80,44,27.65,27.39,7,1,0,0.14
2013-1-26,38.9,32.5,25.0,33.0,29.6,23.8,97,89,76,27.67,27.46,11,2,13,0.01
2013-1-27,47.9,35.0,22.1,38.4,29.5,20.8,96,82,50,27.72,27.62,10,1,0,0.03
2013-1-28,59.2,47.1,35.3,48.0,41.5,33.8,96,82,59,27.68,27.56,12,1,14,0.04
2013-1-29,70.1,53.8,40.1,53.7,48.0,39.3,98,83,51,27.59,27.31,6,1,0,0.01
2013-1-30,68.1,57.6,42.8,59.4,52.9,37.2,96,85,65,27.32,27.00,28,4,36,1.97
2013-1-31,43.0,35.1,32.2,38.0,24.9,20.0,89,67,48,27.36,27.03,37,11,37,0.00
2013-2-1,40.4,24.0,16.2,31.3,13.7,6.9,89,65,46,27.67,27.26,36,7,41,0.00
2013-2-2,28.4,23.1,15.5,27.1,19.7,12.9,95,87,60,27.64,27.34,12,1,16,0.00
2013-2-3,37.9,33.3,28.2,33.0,28.4,20.3,96,83,65,27.47,27.27,24,6,28,0.15
2013-2-4,43.1,31.5,20.8,30.2,24.1,18.9,93,75,48,27.45,27.28,7,1,0,0.00
2013-2-5,52.5,40.0,30.7,40.6,34.1,29.3,95,80,57,27.35,27.26,15,2,18,0.00
2013-2-6,55.9,39.5,26.3,37.6,29.9,24.0,96,73,30,27.54,27.35,11,2,12,0.00
2013-2-7,56.9,44.8,34.6,41.9,34.2,28.4,84,68,46,27.52,27.31,12,2,14,0.01
2013-2-8,52.5,42.6,36.4,45.8,36.1,26.9,96,79,46,27.60,27.27,20,4,28,0.06
2013-2-9,50.6,36.0,22.7,28.4,24.0,19.1,93,65,29,27.67,27.55,8,1,0,0.00
2013-2-10,60.4,45.2,32.1,45.8,29.6,13.9,93,60,16,27.59,27.36,13,2,17,0.13
2013-2-11,56.4,50.6,42.2,51.8,44.3,29.1,96,80,51,27.49,27.34,21,4,21,0.04
2013-2-12,52.5,42.4,29.6,36.9,29.9,24.9,92,64,35,27.54,27.26,7,1,0,0.00
2013-2-13,47.1,42.5,37.1,43.6,38.0,32.0,94,84,71,27.32,27.05,27,5,33,0.23
2013-2-14,49.6,38.4,29.9,33.9,30.5,26.2,94,74,50,27.42,27.32,14,3,18,0.00
2013-2-15,54.5,37.3,25.8,38.8,32.2,24.8,96,83,49,27.43,27.31,23,3,28,0.05
2013-2-16,36.1,31.0,23.4,32.5,21.6,8.3,96,70,39,27.40,27.28,21,4,25,0.00
2013-2-17,37.2,27.3,19.7,16.2,11.0,5.5,82,52,30,27.54,27.37,22,7,30,0.00
2013-2-18,56.8,37.3,17.6,31.3,21.8,14.2,88,58,35,27.59,27.34,21,2,22,0.00
2013-2-19,49.4,43.0,35.3,40.2,28.2,12.0,94,60,27,27.47,27.27,26,8,32,0.22
2013-2-20,36.5,30.5,23.5,18.3,15.2,7.2,76,54,30,27.53,27.47,17,5,18,0.00
2013-2-21,50.9,40.3,18.3,38.4,20.7,12.2,93,51,23,27.55,27.35,10,2,0,0.25
2013-2-22,43.2,41.7,39.4,40.5,39.5,37.5,95,92,87,27.46,27.35,10,2,0,0.22
2013-2-23,56.2,48.2,41.7,48.4,44.3,40.4,96,87,71,27.27,27.22,9,1,0,0.11
2013-2-24,53.6,41.7,29.9,42.9,30.6,22.3,96,69,31,27.43,27.26,14,2,16,0.00
2013-2-25,57.4,42.8,27.7,33.5,28.4,24.2,88,58,35,27.41,27.25,10,3,0,0.00
2013-2-26,58.9,48.2,42.5,46.6,38.7,31.8,86,70,59,27.25,27.00,27,9,32,0.27
2013-2-27,45.9,40.7,38.1,35.2,33.5,30.5,85,75,60,27.21,27.05,24,8,29,0.01
2013-2-28,38.7,35.9,33.4,30.7,26.5,24.1,82,69,58,27.30,27.16,20,9,25,0.00
2013-3-1,34.1,34.0,33.8,29.6,28.7,28.0,84,81,78,27.29,27.25,12,3,15,0.00
2013-3-3,29.1,28.9,28.8,19.1,18.7,18.0,66,65,64,27.39,27.38,2,0,0,0.00
2013-3-4,28.8,23.7,18.3,20.7,18.3,15.7,91,80,65,27.45,27.38,1,0,0,0.00
2013-3-5,47.1,38.7,33.9,41.6,33.4,28.8,84,81,78,27.16,27.03,30,16,37,1.46
2013-3-6,33.8,31.4,28.3,29.5,24.6,21.8,87,76,69,27.20,27.14,26,12,29,0.00
2013-3-8,48.9,38.3,23.8,29.1,26.0,21.8,93,63,38,27.70,27.61,10,2,0,0.00
2013-3-9,66.3,44.2,24.9,37.4,29.3,22.8,92,62,25,27.65,27.50,9,1,0,0.00
2013-3-10,73.4,57.0,39.6,37.4,34.8,30.8,84,49,23,27.53,27.40,8,2,0,0.00
2013-3-11,61.6,55.6,45.6,51.1,45.8,33.0,96,71,50,27.43,27.19,21,4,23,0.58
2013-3-12,50.6,42.9,32.4,49.4,36.5,30.5,96,79,53,27.42,27.23,14,4,16,0.11
2013-3-13,40.5,34.0,27.1,32.2,23.5,14.5,96,69,41,27.59,27.39,29,6,30,0.01
2013-3-14,44.3,33.8,26.1,25.5,18.3,13.3,78,54,34,27.67,27.53,15,4,18,0.00
2013-3-15,63.8,43.7,25.6,42.5,32.1,22.2,90,66,39,27.55,27.26,15,2,18,0.02
2013-3-16,72.4,61.7,44.4,49.5,46.2,42.5,96,59,42,27.31,27.17,26,7,29,0.01
2013-3-17,62.5,56.5,52.4,50.7,49.3,47.3,86,77,63,27.40,27.30,10,2,0,0.00
2013-3-18,60.7,51.0,42.7,49.4,46.6,40.3,97,86,59,27.30,27.18,16,2,19,0.95
2013-3-19,55.6,47.4,36.1,48.6,28.9,8.1,97,55,17,27.47,27.21,27,7,29,0.01
2013-3-20,51.6,40.4,25.5,29.4,18.6,11.6,81,44,22,27.47,27.21,25,5,28,0.00
2013-3-21,37.2,29.9,23.1,14.4,9.8,6.4,57,43,32,27.33,27.25,21,7,24,0.00
2013-3-22,43.6,33.0,16.8,26.8,16.3,11.4,88,53,28,27.38,27.31,10,1,12,0.00
2013-3-23,53.6,44.0,37.1,38.3,32.6,23.9,82,64,51,27.37,27.17,11,1,16,0.00
2013-3-24,56.9,48.0,41.7,48.7,42.7,36.3,92,82,62,29.97,27.00,32,5,38,0.84
2013-3-25,41.8,34.1,30.8,36.4,29.3,26.8,93,83,70,29.97,27.00,28,12,35,0.00
2013-3-26,37.2,33.4,30.7,30.3,28.0,26.2,90,81,68,27.55,27.29,18,6,20,0.00
2013-3-27,42.6,35.8,29.2,28.7,24.5,20.0,85,65,45,27.63,27.54,17,4,18,0.00
2013-3-28,51.4,36.3,21.5,29.4,24.3,19.8,95,66,33,27.64,27.56,17,2,21,0.00
2013-3-29,50.7,37.3,24.0,38.6,29.8,21.0,94,78,31,27.65,27.57,16,2,18,0.03
2013-3-30,40.8,39.7,39.1,38.1,37.7,37.2,93,92,89,27.57,27.53,2,0,0,0.00
2013-3-31,61.1,53.9,47.9,54.1,50.8,46.5,96,90,71,27.29,27.24,19,3,21,0.79
2013-4-1,50.2,47.6,44.7,49.4,46.8,43.9,97,97,96,27.31,27.29,4,0,0,0.00
2013-4-4,39.6,38.5,38.1,36.8,35.8,33.0,93,90,78,27.54,27.33,11,4,14,1.07
2013-4-5,60.2,45.8,38.2,44.6,39.0,36.5,95,80,46,27.45,27.32,14,2,16,0.01
2013-4-6,63.9,41.5,32.5,42.2,35.8,31.4,96,84,36,27.55,27.45,5,1,0,0.00
2013-4-7,71.8,58.3,41.3,46.7,41.3,33.2,83,56,34,27.56,27.45,26,3,27,0.00
2013-4-8,49.8,47.3,45.4,45.0,43.5,42.3,91,87,82,27.48,27.46,7,1,0,0.00
2013-4-9,81.6,69.4,47.5,57.6,53.9,45.7,95,61,38,27.59,27.46,13,2,15,0.00
2013-4-10,59.6,57.7,56.6,54.9,54.0,53.3,89,87,84,27.51,27.50,1,0,0,0.00
2013-4-12,55.1,51.6,47.9,43.7,40.6,36.8,78,67,50,27.35,27.28,7,1,0,0.28
2013-4-13,68.2,53.6,36.9,42.5,38.5,34.8,96,62,31,27.44,27.35,15,3,21,0.00
2013-4-14,76.1,53.5,38.6,44.8,39.7,36.6,93,66,26,27.45,27.36,14,2,16,0.00
2013-4-15,78.3,68.5,54.9,56.2,53.7,49.8,94,61,43,27.53,27.41,8,2,0,0.02
2013-4-16,82.0,66.3,48.9,61.1,55.1,47.5,96,71,43,27.65,27.53,13,2,16,0.00
2013-4-17,68.7,62.9,58.6,62.5,59.6,57.3,96,89,69,27.73,27.49,16,2,24,0.82
2013-4-18,79.6,68.2,54.6,62.7,56.1,51.0,98,70,38,27.49,27.30,22,4,29,0.01
2013-4-19,72.1,70.4,66.9,59.0,57.9,57.2,73,65,60,27.30,27.17,14,4,22,0.00
2013-4-20,60.0,50.7,39.4,35.6,31.5,25.6,83,50,28,27.64,27.53,15,4,18,0.00
2013-4-21,39.3,36.8,34.8,34.9,33.1,31.4,91,87,79,27.68,27.64,2,0,0,0.00
2013-4-24,58.1,51.2,48.0,53.1,46.4,42.5,88,84,81,27.60,27.44,13,5,22,0.11
2013-4-25,63.2,50.8,37.5,42.7,37.3,31.5,90,63,32,27.71,27.59,11,3,14,0.00
2013-4-26,70.0,52.6,32.9,46.2,36.1,27.8,96,60,23,27.77,27.65,8,1,0,0.00
2013-4-27,58.2,55.0,51.2,54.7,50.2,43.5,93,84,65,27.72,27.53,6,1,0,0.18
2013-4-28,59.0,54.6,51.8,55.7,52.1,50.1,95,92,83,27.56,27.33,11,2,0,0.99
2013-4-29,71.3,59.3,49.4,57.0,53.0,48.6,97,82,53,27.44,27.36,10,2,12,0.00
2013-4-30,81.6,65.3,49.3,58.8,54.0,48.5,97,71,37,27.53,27.39,7,1,0,0.00
2013-5-1,74.7,63.7,51.4,55.9,52.7,49.9,97,70,44,27.65,27.53,14,3,16,0.00
2013-5-2,74.6,62.7,52.2,56.0,52.4,49.7,92,71,48,27.65,27.58,11,3,15,0.00
2013-5-3,69.5,64.4,58.9,53.3,47.6,40.8,76,55,37,27.55,27.46,19,6,25,0.00
2013-5-4,65.1,58.5,52.0,50.2,46.2,35.9,89,64,53,27.46,27.35,18,5,24,0.17
2013-5-5,53.8,52.8,51.9,48.6,48.1,47.1,88,84,80,27.38,27.24,14,4,15,0.05
2013-5-7,58.1,56.1,55.0,54.6,53.9,53.2,95,93,86,27.36,27.33,3,0,0,0.07
2013-5-8,68.1,59.9,54.3,59.5,55.5,53.1,96,86,64,27.47,27.33,14,2,15,0.19
2013-5-9,77.5,63.4,52.9,61.7,56.5,51.8,97,81,48,27.53,27.44,10,1,0,0.01
2013-5-10,76.7,64.2,53.0,63.1,58.4,51.8,97,83,54,27.51,27.38,15,2,17,0.00
2013-5-11,70.8,63.4,56.1,63.9,58.8,50.8,97,86,65,27.39,27.28,16,2,20,0.31
2013-5-12,61.7,55.4,49.7,50.8,39.7,28.7,94,59,32,27.50,27.37,17,4,22,0.00
2013-5-13,51.4,41.8,34.1,36.0,33.9,30.9,94,76,46,27.53,27.50,10,0,0,0.00
2013-5-15,83.7,72.9,51.9,60.0,56.9,50.5,95,60,39,27.55,27.41,16,4,19,0.00
2013-5-16,80.3,66.0,52.2,61.3,56.7,51.1,97,75,41,27.50,27.42,12,2,0,0.00
2013-5-17,83.6,67.4,54.6,62.2,58.2,53.2,96,75,43,27.54,27.45,14,1,16,0.00
2013-5-18,75.3,65.5,59.8,67.6,62.7,58.1,96,91,72,27.53,27.45,14,1,18,0.89
2013-5-19,81.5,69.9,62.7,69.0,65.2,61.8,97,86,62,27.51,27.43,11,1,0,0.03
2013-5-20,83.3,70.6,61.8,68.6,64.2,60.6,97,82,55,27.57,27.45,7,1,0,0.01
2013-5-21,64.3,62.5,60.6,62.8,61.4,59.7,97,96,95,27.47,27.45,2,0,0,0.00
2013-5-22,85.2,70.8,58.8,69.2,63.7,57.9,97,80,50,27.42,27.31,14,2,15,0.61
2013-5-23,78.2,68.5,61.9,65.8,60.5,54.6,97,77,50,27.43,27.31,24,3,26,0.07
2013-5-24,67.5,59.8,47.1,56.1,46.7,36.6,93,65,34,27.67,27.43,16,3,17,0.03
2013-5-25,72.2,57.1,39.2,47.5,41.9,36.3,97,62,32,27.74,27.58,10,1,12,0.00
2013-5-26,74.7,63.8,54.4,53.6,47.5,42.1,89,58,36,27.69,27.60,11,1,14,0.00
2013-5-27,82.5,66.8,50.1,64.2,55.6,48.5,96,70,42,27.64,27.51,9,1,13,0.00
2013-5-28,85.5,71.8,57.2,65.3,60.2,55.8,95,70,42,27.63,27.52,11,2,14,0.00
2013-5-29,89.0,73.5,57.2,66.9,60.7,55.5,95,67,39,27.66,27.55,6,1,0,0.00
2013-5-30,90.1,74.2,57.6,66.3,60.4,54.8,96,66,32,27.69,27.54,6,1,0,0.00
2013-5-31,88.8,75.2,59.1,65.8,61.2,57.3,95,65,37,27.62,27.51,10,1,0,0.00
2013-6-1,89.4,76.3,61.4,67.3,62.7,59.3,94,65,42,27.54,27.41,10,1,12,0.03
2013-6-2,74.5,68.9,66.0,68.2,66.3,64.3,96,91,78,27.46,27.35,7,1,0,0.95
2013-6-3,80.3,71.7,64.0,67.2,63.0,58.1,96,76,49,27.46,27.35,12,2,17,0.00
2013-6-4,84.3,70.9,56.3,65.6,59.8,55.2,97,71,42,27.50,27.43,7,1,0,0.00
2013-6-5,89.8,72.1,60.0,70.6,63.8,58.6,96,78,42,27.51,27.38,8,1,12,0.45
2013-6-6,82.9,72.3,64.2,69.9,66.0,62.9,97,82,59,27.42,27.23,9,1,0,0.01
2013-6-7,81.4,72.1,66.0,70.4,67.0,62.9,96,85,55,27.33,27.19,8,1,13,0.27
2013-6-8,82.9,70.8,61.8,65.8,63.2,60.6,97,79,51,27.47,27.33,8,1,0,0.42
2013-6-9,86.1,73.6,60.9,70.7,66.0,60.0,97,79,48,27.58,27.44,15,2,20,0.58
2013-6-10,68.3,67.4,66.7,66.5,65.9,65.4,97,95,93,27.46,27.38,4,0,0,0.02
2013-6-12,89.0,78.9,63.9,74.5,70.2,62.7,97,76,60,27.50,27.47,13,2,14,0.00
2013-6-13,82.8,74.1,66.8,74.6,69.2,61.8,95,85,70,27.37,27.22,22,3,28,0.87
2013-6-14,80.5,67.8,55.4,63.7,58.2,53.7,97,75,42,27.51,27.34,10,1,13,0.00
2013-6-15,59.5,57.3,54.5,57.4,55.8,53.4,96,95,92,27.54,27.50,2,0,0,0.00
2013-6-18,75.8,69.6,63.6,69.4,66.1,62.1,96,89,71,27.43,27.33,11,1,15,0.34
2013-6-19,85.2,70.6,59.0,69.0,63.0,58.2,98,80,46,27.55,27.41,5,1,0,0.00
2013-6-20,88.1,73.6,61.4,69.4,64.8,60.3,97,76,43,27.65,27.54,7,1,0,0.00
2013-6-21,67.5,65.3,63.3,65.1,63.6,61.9,96,94,92,27.66,27.64,3,0,0,0.00
2013-6-22,87.5,77.1,64.2,66.2,62.2,54.7,93,63,35,27.70,27.56,7,1,0,0.00
2013-6-23,89.5,73.5,60.3,67.5,62.8,58.9,96,73,40,27.67,27.56,7,1,0,0.00
2013-6-24,86.4,77.3,65.7,71.7,67.8,63.3,96,74,53,27.68,27.55,17,2,25,0.04
2013-6-25,80.5,73.1,67.0,72.2,68.6,65.8,96,86,71,27.62,27.50,9,1,12,0.13
2013-6-26,84.5,73.9,65.2,74.0,68.9,64.3,97,85,63,27.51,27.37,13,1,19,0.02
2013-6-27,84.9,72.7,65.0,74.5,68.9,63.5,96,88,66,27.41,27.26,14,2,18,0.57
2013-6-28,82.6,74.1,68.1,73.5,69.8,65.2,97,87,63,27.32,27.16,14,2,22,0.00
2013-6-29,84.8,73.4,64.7,68.5,64.9,59.0,97,78,45,27.20,27.14,15,2,18,0.00
2013-6-30,86.9,72.7,60.1,67.9,62.8,57.8,97,75,41,27.28,27.18,11,1,18,0.37
2013-7-1,87.8,73.0,66.0,69.0,66.0,62.9,97,81,46,27.39,27.26,13,1,22,0.03
2013-7-2,88.4,72.7,63.5,71.3,66.5,62.6,97,83,48,27.54,27.38,22,1,32,0.16
2013-7-3,74.8,69.5,64.3,70.8,66.8,62.8,96,91,80,27.65,27.53,8,1,0,0.74
2013-7-4,76.1,67.3,64.1,71.2,65.7,62.9,97,95,82,27.65,27.57,4,0,0,0.41
2013-7-5,84.2,74.7,67.1,72.3,68.4,66.1,97,82,62,27.65,27.58,10,1,0,0.08
2013-7-6,88.3,75.6,67.8,71.4,68.4,66.4,96,80,50,27.63,27.53,15,1,18,0.22
2013-7-7,72.7,70.6,66.6,68.8,67.8,65.4,97,91,86,27.61,27.56,5,0,0,0.19
2013-7-8,67.1,66.2,65.4,66.2,65.2,64.5,97,97,96,27.62,27.60,2,0,0,0.00
2013-7-9,90.8,79.5,63.3,73.5,69.6,62.4,97,74,49,27.64,27.52,8,1,0,0.00
2013-7-10,73.2,70.8,69.3,70.4,69.0,68.0,96,94,90,27.57,27.52,1,0,0,0.00
2013-7-11,85.1,76.8,70.1,73.0,70.6,68.9,97,82,63,27.46,27.36,7,1,0,0.01
2013-7-12,84.4,74.5,64.3,69.2,65.4,61.6,97,76,47,27.47,27.39,9,1,14,0.00
2013-7-13,85.3,74.8,63.5,67.7,64.3,61.1,93,71,49,27.57,27.44,12,2,14,0.00
2013-7-14,85.0,76.8,69.2,72.5,68.2,65.3,95,76,58,27.71,27.55,16,2,18,0.22
2013-7-15,91.0,77.1,64.8,70.8,67.4,63.6,97,74,46,27.77,27.69,8,1,0,0.00
2013-7-16,92.8,78.1,64.8,74.2,68.0,63.6,97,74,43,27.80,27.71,9,1,0,0.00
2013-7-17,72.3,69.9,67.9,69.3,68.1,66.7,97,94,89,27.74,27.68,4,0,0,0.51
2013-7-18,92.8,76.5,67.6,76.3,70.4,66.7,97,83,55,27.70,27.53,12,1,13,0.00
2013-7-19,89.1,83.7,70.6,74.3,72.4,68.5,94,70,59,27.59,27.46,10,3,13,1.03
2013-7-20,87.9,75.7,67.6,75.9,70.6,66.7,97,85,65,27.52,27.41,17,1,21,0.10
2013-7-21,83.1,72.5,68.8,74.0,69.7,67.1,97,91,72,27.51,27.42,9,0,0,0.35
2013-7-22,82.2,75.3,69.0,73.5,70.3,67.8,97,85,70,27.47,27.36,13,2,17,0.13
2013-7-24,84.1,82.3,76.7,70.8,68.3,65.2,79,63,57,27.34,27.30,8,2,0,0.01
2013-7-26,86.8,76.5,57.5,68.2,64.3,56.4,97,68,50,27.54,27.45,10,2,0,0.00
2013-7-27,77.2,76.4,74.3,69.8,68.8,68.1,82,78,74,27.41,27.38,3,2,0,0.04
2013-7-28,73.7,69.0,65.5,68.8,66.0,64.6,97,90,76,27.45,27.41,7,1,0,0.00
2013-7-30,80.7,77.7,74.6,63.5,62.2,59.8,64,59,53,27.66,27.63,6,1,0,0.00
2013-8-7,81.4,77.8,72.5,71.9,70.7,69.5,92,79,72,27.48,27.44,9,1,0,0.03
2013-8-8,78.8,73.9,69.8,73.3,70.8,68.5,96,90,80,27.52,27.47,4,0,0,0.08
2013-8-9,71.8,69.9,68.9,69.8,68.6,67.7,97,96,93,27.53,27.48,2,0,0,0.00
2013-8-10,88.3,76.6,69.7,76.0,71.8,68.5,96,86,62,27.59,27.54,17,1,22,0.04
2013-8-11,72.9,70.0,68.9,70.7,68.8,68.0,97,96,92,27.62,27.58,2,0,0,0.01
2013-8-14,72.0,64.3,57.6,56.5,55.1,53.6,89,73,58,27.54,27.49,3,0,0,0.00
2013-8-15,79.8,66.4,54.4,64.9,58.5,52.5,95,77,54,27.54,27.47,11,1,0,0.00
2013-8-16,81.9,68.9,57.2,64.6,59.2,55.5,95,74,42,27.56,27.49,10,1,0,0.00
2013-8-18,75.9,75.9,75.9,67.4,67.1,67.0,75,74,74,27.63,27.63,1,0,0,0.00
2013-8-19,83.2,75.8,66.5,69.9,68.0,65.3,97,78,59,27.60,27.52,4,0,0,0.06
2013-8-20,87.0,74.8,63.0,71.2,67.4,61.8,97,80,53,27.64,27.55,7,1,0,0.00
2013-8-21,84.1,73.2,66.5,72.9,68.6,65.3,96,87,64,27.68,27.59,9,1,0,0.03
2013-8-22,85.8,74.9,66.2,72.1,68.0,65.0,97,81,53,27.64,27.50,9,1,14,0.01
2013-8-23,83.0,70.3,63.7,74.1,67.0,62.5,97,90,69,27.56,27.49,5,0,0,0.26
2013-8-24,84.6,70.4,62.4,66.5,63.5,57.9,97,82,42,27.67,27.55,11,2,0,0.01
2013-8-25,81.2,66.4,58.4,56.2,54.8,51.6,89,69,36,27.74,27.69,3,0,0,0.00
2013-8-26,84.5,68.4,54.6,66.8,60.8,53.5,97,79,51,27.75,27.58,8,1,0,0.00
2013-8-27,84.6,71.6,60.9,70.9,66.0,59.8,97,84,60,27.60,27.50,9,1,0,0.00
2013-8-28,87.6,76.2,67.5,74.0,69.2,66.3,96,81,55,27.54,27.44,12,1,14,0.00
2013-8-29,90.3,78.8,69.8,73.7,70.1,66.7,95,77,48,27.49,27.42,10,1,12,0.00
2013-8-30,89.1,75.5,66.1,73.2,67.9,63.6,96,80,43,27.50,27.39,10,1,0,0.00
2013-8-31,89.9,75.9,69.7,75.4,70.6,67.5,95,85,54,27.46,27.34,10,1,14,0.31
2013-9-3,83.7,76.2,63.1,70.9,65.8,61.2,94,72,50,27.49,27.38,10,2,12,0.59
2013-9-4,84.1,69.5,57.2,65.0,60.8,56.3,97,77,43,27.58,27.48,8,1,0,0.01
2013-9-5,82.8,68.2,55.8,64.8,59.3,49.2,97,77,33,27.62,27.56,8,1,0,0.00
2013-9-6,85.3,69.9,56.8,64.6,60.7,56.0,97,76,43,27.63,27.52,7,1,0,0.00
2013-9-7,83.6,70.0,56.8,67.3,61.9,56.0,97,78,49,27.58,27.46,13,2,16,0.00
2013-9-9,90.5,79.8,65.4,70.6,67.4,63.9,97,69,43,27.59,27.50,8,1,0,0.00
2013-9-10,85.0,70.3,64.5,69.4,66.0,63.3,96,87,55,27.70,27.59,4,0,0,0.00
2013-9-11,88.8,80.6,69.2,72.1,69.6,65.9,94,71,51,27.70,27.56,12,2,12,0.00
2013-9-12,83.3,72.2,65.5,72.8,68.0,64.3,97,87,67,27.58,27.37,12,1,15,0.47
2013-9-13,75.0,68.2,58.1,66.2,58.0,45.3,96,73,39,27.44,27.35,14,2,15,0.01
2013-9-14,73.2,58.2,47.0,51.4,49.0,45.3,95,74,44,27.52,27.43,10,2,13,0.00
2013-9-18,66.7,64.1,62.9,61.6,60.5,57.0,95,88,74,27.66,27.58,7,1,0,0.09
2013-9-19,79.7,68.5,62.0,66.8,63.7,60.8,96,86,62,27.62,27.51,8,1,0,0.00
2013-9-20,83.0,69.8,58.9,68.0,63.2,57.9,97,81,52,27.53,27.36,8,1,0,0.01
2013-9-21,68.1,64.5,62.5,66.0,62.9,60.8,96,94,92,27.36,27.23,14,1,17,0.17
2013-9-27,78.3,69.2,56.5,60.1,56.2,49.8,96,66,38,27.58,27.51,11,1,19,0.01
2013-9-28,76.5,61.8,50.7,59.3,54.8,49.6,97,80,51,27.66,27.53,7,1,0,0.00
2013-9-29,72.9,60.6,49.7,60.5,55.5,48.6,97,85,59,27.57,27.44,7,1,0,0.01
2013-9-30,76.7,64.2,55.3,61.2,57.1,53.8,96,80,47,27.52,27.42,9,1,0,0.00
2013-10-1,77.0,63.7,51.5,62.8,57.3,50.3,97,82,52,27.59,27.49,8,1,0,0.00
2013-10-2,80.6,64.6,52.4,64.4,58.0,51.3,97,82,50,27.62,27.51,6,0,0,0.01
2013-10-3,82.3,66.6,57.2,64.3,59.6,55.8,96,81,46,27.59,27.50,6,1,0,0.00
2013-10-4,83.0,68.0,57.5,65.9,60.6,56.4,97,80,45,27.62,27.53,8,1,0,0.00
2013-10-5,86.0,68.9,56.1,66.9,61.2,55.0,97,79,47,27.60,27.45,6,0,0,0.00
2013-10-6,84.3,70.9,56.8,65.1,60.6,55.7,96,73,46,27.48,27.29,12,2,14,0.03
2013-10-7,70.6,60.3,48.6,64.3,53.0,46.7,95,79,48,27.51,27.29,17,2,17,0.23
2013-10-8,72.0,57.0,43.3,49.3,45.9,41.4,95,70,42,27.56,27.50,14,2,16,0.00
2013-10-23,45.7,40.6,31.4,35.3,33.1,28.9,91,75,64,27.46,27.38,16,4,18,0.00
2013-10-24,51.7,39.6,27.6,40.0,33.6,26.1,95,81,52,27.57,27.45,17,3,23,0.04
2013-10-25,40.0,40.0,39.8,34.1,34.0,33.7,80,79,78,27.57,27.56,6,3,0,0.00
2013-10-27,64.3,57.4,48.4,44.6,40.8,36.0,68,54,48,27.51,27.46,15,4,17,0.00
2013-10-28,65.4,61.7,53.3,54.7,53.3,51.9,95,75,65,27.63,27.58,8,2,0,0.06
2013-10-29,65.2,62.1,55.8,55.3,54.1,53.4,92,76,67,27.73,27.69,7,2,0,0.00
2013-10-30,70.9,70.9,70.9,58.5,58.5,58.5,65,65,65,27.64,27.64,6,6,0,0.00
2013-11-5,64.7,64.7,64.7,32.6,32.6,30.8,30,30,30,27.70,27.70,0,0,0,0.00
2013-11-6,71.0,62.7,51.3,53.3,50.3,45.0,81,65,51,27.63,27.59,22,4,22,0.00
2013-11-7,52.7,52.2,51.8,35.3,34.7,33.8,52,51,50,27.55,27.55,11,6,15,0.26
2013-11-8,53.1,46.9,37.9,29.1,25.6,22.3,68,45,31,27.62,27.60,4,1,0,0.00
2013-11-10,63.5,55.2,38.7,41.5,30.9,22.5,68,41,24,27.65,27.55,16,5,24,0.00
2013-11-11,62.6,45.9,27.0,33.6,27.1,15.1,89,53,16,27.67,27.51,11,2,0,0.00
2013-11-12,42.2,34.6,24.1,37.6,25.1,14.7,84,68,54,27.85,27.47,14,2,17,0.01
2013-11-13,40.6,26.9,15.9,21.9,18.2,13.7,92,72,39,27.91,27.74,10,1,0,0.00
2013-11-14,54.9,33.5,15.6,25.7,19.8,13.7,93,64,27,27.75,27.59,7,1,0,0.00
2013-11-15,50.8,46.6,42.6,44.1,38.2,26.7,96,76,43,27.59,27.50,5,1,0,0.09
2013-11-16,69.1,51.9,42.7,54.1,47.6,41.6,96,87,57,27.58,27.47,5,0,0,0.01
2013-11-17,70.1,55.6,44.2,59.4,52.3,43.1,97,90,61,27.49,27.25,17,1,17,0.25
2013-11-18,62.5,56.7,47.2,60.1,42.6,29.0,96,63,31,27.52,27.25,20,5,22,0.18
2013-11-19,49.7,41.0,30.0,30.7,27.3,24.5,84,59,38,27.60,27.52,8,1,0,0.00
2013-11-20,56.5,43.8,29.8,30.2,28.0,25.8,88,56,32,27.67,27.53,13,3,14,0.00
2013-11-21,69.4,50.0,33.3,51.9,42.0,28.7,92,76,50,27.69,27.61,13,1,14,0.00
2013-11-22,55.4,51.1,45.4,53.8,49.3,43.6,96,94,91,27.67,27.55,6,0,0,0.14
2013-11-23,55.4,45.7,31.4,52.8,34.8,17.8,91,67,35,27.70,27.55,19,5,24,0.00
2013-11-24,32.9,25.9,19.2,18.5,10.2,2.5,72,53,28,27.84,27.70,12,2,17,0.00
2013-11-25,37.2,29.1,17.7,26.8,15.4,8.5,79,57,44,27.75,27.54,11,1,12,0.01
2013-11-26,47.2,40.5,33.6,45.8,38.9,30.7,96,94,89,27.48,27.08,14,1,19,2.17
2013-11-27,39.4,30.9,26.4,36.9,25.6,14.3,94,81,59,27.57,27.11,16,4,22,0.19
2013-11-28,38.7,26.8,16.7,24.0,19.4,14.5,94,75,49,27.75,27.57,7,1,1,0.00
2013-11-29,47.1,29.9,16.9,30.1,22.7,15.2,95,78,42,27.85,27.75,5,0,0,0.01
2013-11-30,53.3,34.7,24.4,30.5,26.4,22.4,93,75,39,27.80,27.61,7,1,0,0.00
2013-12-1,53.5,36.6,21.5,35.9,29.2,20.0,95,77,48,27.61,27.35,9,1,0,0.00
2013-12-2,50.8,43.8,39.4,41.5,38.7,34.6,92,82,65,27.35,27.19,5,0,0,0.01
2013-12-3,61.7,49.2,41.9,50.1,44.8,40.3,95,85,62,27.29,27.21,5,0,0,0.03
2013-12-4,71.3,54.6,41.9,54.0,48.3,40.3,95,81,53,27.39,27.28,9,1,12,0.00
2013-12-5,72.0,59.3,47.5,60.9,54.4,45.8,96,85,62,27.44,27.34,11,1,0,0.09
2013-12-6,60.6,53.9,42.6,59.7,52.5,41.0,97,95,89,27.53,27.29,32,2,32,1.41
2013-12-7,42.4,38.1,34.5,40.8,34.7,30.6,95,88,80,27.75,27.52,13,2,16,0.01
2013-12-8,47.6,42.0,35.5,43.9,39.2,31.7,95,90,83,27.66,27.41,11,2,15,0.41
2013-12-9,48.1,45.0,42.2,46.5,43.8,40.9,97,96,94,27.50,27.38,8,1,0,0.53
2013-12-10,44.2,35.7,22.8,43.1,32.5,21.6,97,88,61,27.68,27.33,18,3,19,0.36
2013-12-11,45.1,29.3,18.1,28.5,22.7,16.7,95,79,40,27.72,27.60,9,1,0,0.00
2013-12-12,35.9,28.2,20.0,23.4,18.8,12.0,91,69,39,27.78,27.66,11,2,18,0.00
2013-12-13,46.1,30.7,16.8,29.1,20.1,14.9,93,69,33,27.68,27.45,8,1,0,0.00
2013-12-14,47.8,42.5,36.9,44.4,36.5,23.7,95,81,48,27.47,27.12,13,2,12,0.57
2013-12-15,46.5,36.2,30.7,45.0,31.9,26.8,96,84,79,27.50,27.14,16,6,21,0.01
2013-12-16,47.8,34.8,28.2,34.2,29.6,25.7,92,82,56,27.53,27.40,13,2,16,0.00
2013-12-17,53.9,40.3,26.9,37.7,30.5,19.2,95,71,45,27.53,27.30,26,6,31,0.01
2013-12-18,43.8,32.8,22.1,25.2,21.8,18.8,90,66,39,27.65,27.52,18,3,20,0.00
2013-12-19,55.2,35.1,21.4,32.0,24.9,18.9,91,70,32,27.60,27.47,5,0,0,0.00
2013-12-20,62.2,43.5,27.8,42.3,33.8,26.0,93,72,33,27.51,27.42,7,1,0,0.00
2013-12-21,73.2,60.8,43.9,60.4,51.0,39.0,87,71,58,27.42,27.25,21,3,26,0.00
2013-12-22,72.4,59.4,54.1,61.0,55.6,52.9,96,88,66,27.48,27.26,39,2,39,1.58
2013-12-23,54.6,45.3,34.7,53.5,41.6,27.5,96,87,75,27.65,27.41,16,4,17,0.24
2013-12-24,34.7,30.1,18.3,28.5,21.5,14.9,87,70,51,27.74,27.62,17,4,19,0.00
2013-12-25,42.0,25.7,14.8,24.0,17.9,12.4,92,75,40,27.72,27.58,8,1,0,0.00
2013-12-26,45.0,31.6,20.0,29.5,24.3,18.3,94,77,46,27.66,27.59,11,1,13,0.00
2013-12-27,49.0,30.6,19.0,30.2,23.5,17.5,94,78,38,27.76,27.64,8,1,0,0.00
2013-12-28,45.6,33.1,19.0,40.5,27.0,17.3,94,80,48,27.69,27.36,7,1,0,0.39
2013-12-29,45.8,43.5,40.9,43.8,41.7,39.0,95,93,88,27.39,27.16,13,4,17,0.74
2013-12-30,41.9,38.2,34.4,40.0,34.6,30.9,95,87,80,27.54,27.37,10,2,15,0.00
2013-12-31,39.1,30.6,23.7,30.9,25.8,21.7,96,84,58,27.71,27.52,18,2,18,0.00
2014-1-1,47.0,29.7,19.0,31.5,24.7,17.6,95,83,50,27.64,27.40,8,1,0,0.00
2014-1-2,37.5,30.9,19.3,36.0,28.1,9.1,95,89,65,27.40,27.07,32,4,32,0.21